Three Rivers, MI

8:59 AM EST on January 21, 2018 (GMT -0500)
Three Rivers Municipal-Haines

Weather History for KHAI - March, 2013

Change the Weather History Date:

Tuesday, March 19, 2013

  Actual Average Record
Temperature  
Mean Temperature 25 °F -  
Max Temperature 31 °F 45 °F 79 °F (2012)
Min Temperature 19 °F 28 °F 9 °F (1965)
Degree Days  
Heating Degree Days 40    
Moisture  
Dew Point 16 °F    
Average Humidity 68    
Maximum Humidity 83    
Minimum Humidity 50    
Precipitation  
Precipitation 0.00 in - - ()
Sea Level Pressure  
Sea Level Pressure 29.84 in    
Wind  
Wind Speed 16 mph (West)    
Max Wind Speed 26 mph    
Max Gust Speed 37 mph    
Visibility 8 miles    
Events Snow    
Averages and records for this station are not official NWS values.
T = Trace of Precipitation, MM = Missing Value Source: NWS Daily Summary

Daily Weather History Graph

Daily Weather History Graph

Search for Another Location

Airport or City:

Trip Planner

Search our weather history database for the weather conditions in past years. The results will help you decide how hot, cold, wet, or windy it might be!

Date:

Astronomy

Mar. 19, 2013 Rise Set
Actual Time 7:46 AM EDT 7:53 PM EDT
Civil Twilight 7:19 AM EDT 8:21 PM EDT
Nautical Twilight 6:46 AM EDT 8:54 PM EDT
Astronomical Twilight 6:13 AM EDT 9:27 PM EDT
Moon 12:31 PM EDT (3/19) 2:45 AM EDT (3/19)
Length of Visible Light 13h 02m
Length of Day
12h 06m
Waxing Crescent, 49% of the Moon is Illuminated
Mar 19
Waxing Crescent
Mar 19
First Quarter
Mar 27
Full
Apr 3
Last Quarter
Apr 10
New

Hourly Weather History & Observations

Time (EDT) Temp. Windchill Dew Point Humidity Pressure Visibility Wind Dir Wind Speed Gust Speed Precip Events Conditions
12:15 AM 28.9 °F 17.7 °F 22.3 °F 76% 29.70 in 10.0 mi West 15.0 mph 24.2 mph N/A   Overcast
12:35 AM 28.4 °F 16.6 °F 21.9 °F 77% 29.71 in 10.0 mi West 16.1 mph 21.9 mph N/A   Overcast
12:54 AM 27.5 °F 13.9 °F 20.5 °F 75% 29.71 in 10.0 mi West 20.7 mph 32.2 mph N/A   Overcast
1:15 AM 27.0 °F 12.5 °F 19.4 °F 73% 29.71 in 10.0 mi West 23.0 mph 32.2 mph N/A   Overcast
1:35 AM 26.4 °F 15.5 °F 19.0 °F 74% 29.72 in 10.0 mi West 12.7 mph 27.6 mph N/A Snow Light Snow
1:54 AM 25.7 °F 10.8 °F 17.6 °F 71% 29.72 in 10.0 mi West 23.0 mph 35.7 mph N/A Snow Light Snow
2:15 AM 25.7 °F 13.5 °F 18.5 °F 74% 29.72 in 10.0 mi West 15.0 mph 26.5 mph N/A Snow Light Snow
2:34 AM 25.5 °F 14.3 °F 18.9 °F 76% 29.72 in 7.0 mi WSW 12.7 mph 24.2 mph N/A Snow Light Snow
2:55 AM 24.8 °F 12.4 °F 17.1 °F 72% 29.73 in 10.0 mi WSW 15.0 mph 21.9 mph N/A Snow Light Snow
3:15 AM 23.9 °F 11.2 °F 16.0 °F 72% 29.73 in 7.0 mi West 15.0 mph 23.0 mph N/A Snow Light Snow
3:34 AM 23.7 °F 11.5 °F 14.7 °F 69% 29.73 in 10.0 mi WSW 13.8 mph 27.6 mph N/A Snow Light Snow
3:55 AM 23.5 °F 10.8 °F 14.7 °F 69% 29.74 in 10.0 mi WSW 15.0 mph 24.2 mph N/A Snow Light Snow
4:14 AM 23.5 °F 11.8 °F 14.9 °F 70% 29.73 in 10.0 mi West 12.7 mph 23.0 mph N/A Snow Light Snow
4:34 AM 23.0 °F 9.6 °F 14.9 °F 71% 29.73 in 7.0 mi West 16.1 mph 21.9 mph N/A Snow Light Snow
4:55 AM 22.8 °F 10.9 °F 15.6 °F 74% 29.73 in 7.0 mi West 12.7 mph 18.4 mph N/A Snow Light Snow
5:14 AM 22.6 °F 10.1 °F 15.1 °F 73% 29.73 in 7.0 mi WSW 13.8 mph 19.6 mph N/A Snow Light Snow
5:34 AM 22.6 °F 11.3 °F 14.0 °F 69% 29.74 in 10.0 mi WSW 11.5 mph 23.0 mph N/A Snow Light Snow
5:55 AM 22.5 °F 8.9 °F 14.0 °F 70% 29.75 in 10.0 mi West 16.1 mph 23.0 mph N/A Snow Light Snow
6:14 AM 22.1 °F 7.6 °F 13.1 °F 68% 29.76 in 10.0 mi WSW 18.4 mph 28.8 mph N/A Snow Light Snow
6:35 AM 22.1 °F 8.9 °F 14.2 °F 72% 29.77 in 7.0 mi SW 15.0 mph 26.5 mph N/A Snow Light Snow
6:55 AM 21.6 °F 8.8 °F 15.4 °F 77% 29.77 in 5.0 mi WSW 13.8 mph 18.4 mph N/A Snow Light Snow
7:14 AM 21.2 °F 8.3 °F 14.9 °F 77% 29.77 in 5.0 mi WSW 13.8 mph 23.0 mph N/A Snow Light Snow
7:35 AM 20.8 °F 6.8 °F 15.4 °F 80% 29.78 in 2.5 mi WSW 16.1 mph 23.0 mph N/A Snow Light Snow
7:55 AM 20.3 °F 6.1 °F 15.6 °F 82% 29.78 in 2.0 mi WSW 16.1 mph 20.7 mph N/A Snow Light Snow
8:14 AM 19.9 °F 5.7 °F 14.7 °F 80% 29.78 in 1.8 mi WSW 16.1 mph 21.9 mph N/A Snow Light Snow
8:35 AM 20.1 °F 8.8 °F 14.7 °F 80% 29.79 in 1.5 mi SW 10.4 mph 19.6 mph N/A Snow Light Snow
8:55 AM 20.1 °F 6.4 °F 15.1 °F 81% 29.78 in 1.5 mi WSW 15.0 mph 20.7 mph N/A Snow Light Snow
9:14 AM 19.9 °F 9.3 °F 15.4 °F 83% 29.78 in 1.0 mi WSW 9.2 mph 18.4 mph N/A Snow Light Snow
9:35 AM 20.1 °F 8.8 °F 15.8 °F 83% 29.78 in 1.0 mi West 10.4 mph 17.3 mph N/A Snow Light Snow
9:54 AM 20.3 °F 10.6 °F 15.6 °F 82% 29.79 in 1.8 mi WSW 8.1 mph 19.6 mph N/A Snow Light Snow
10:14 AM 20.3 °F 8.3 °F 15.8 °F 83% 29.79 in 1.0 mi WSW 11.5 mph 17.3 mph N/A Snow Light Snow
10:35 AM 20.3 °F 8.3 °F 15.6 °F 82% 29.80 in 1.2 mi WSW 11.5 mph 19.6 mph N/A Snow Light Snow
10:54 AM 20.8 °F 7.3 °F 15.1 °F 78% 29.81 in 1.8 mi West 15.0 mph - N/A Snow Light Snow
11:15 AM 21.2 °F 10.1 °F 14.9 °F 77% 29.82 in 2.5 mi WSW 10.4 mph 19.6 mph N/A Snow Light Snow
11:35 AM 20.8 °F 7.3 °F 14.7 °F 77% 29.83 in 2.0 mi West 15.0 mph 26.5 mph N/A Snow Light Snow
11:54 AM 21.4 °F 9.1 °F 14.9 °F 76% 29.83 in 2.5 mi West 12.7 mph 23.0 mph N/A Snow Light Snow
12:15 PM 21.7 °F 9.0 °F 14.7 °F 74% 29.84 in 2.5 mi West 13.8 mph 24.2 mph N/A Snow Light Snow
12:35 PM 22.1 °F 8.5 °F 14.9 °F 74% 29.84 in 2.5 mi West 16.1 mph 26.5 mph N/A Snow Light Snow
12:54 PM 22.1 °F 9.5 °F 14.9 °F 74% 29.85 in 4.0 mi West 13.8 mph 23.0 mph N/A Snow Light Snow
1:15 PM 22.8 °F 12.2 °F 15.4 °F 73% 29.86 in 4.0 mi WSW 10.4 mph 21.9 mph N/A Snow Light Snow
1:35 PM 23.5 °F 9.9 °F 15.8 °F 72% 29.86 in 5.0 mi West 17.3 mph 21.9 mph N/A Snow Light Snow
2:15 PM 24.8 °F 11.9 °F 15.6 °F 68% 29.87 in 10.0 mi West 16.1 mph 32.2 mph N/A Snow Light Snow
2:34 PM 25.7 °F 11.2 °F 15.8 °F 66% 29.87 in 10.0 mi West 21.9 mph 28.8 mph N/A   Overcast
2:55 PM 26.6 °F 11.1 °F 15.6 °F 63% 29.88 in 10.0 mi West 26.5 mph 34.5 mph N/A   Overcast
3:15 PM 27.5 °F 14.2 °F 16.2 °F 62% 29.88 in 10.0 mi West 19.6 mph 29.9 mph N/A   Overcast
3:34 PM 28.8 °F 15.2 °F 17.4 °F 63% 29.88 in 10.0 mi West 21.9 mph 33.4 mph N/A   Mostly Cloudy
3:55 PM 30.0 °F 16.0 °F 18.0 °F 61% 29.88 in 10.0 mi West 25.3 mph 33.4 mph N/A   Mostly Cloudy
4:14 PM 29.5 °F 17.6 °F 18.0 °F 62% 29.89 in 10.0 mi West 17.3 mph 32.2 mph N/A   Mostly Cloudy
4:34 PM 29.7 °F 16.1 °F 16.7 °F 59% 29.90 in 10.0 mi West 23.0 mph 36.8 mph N/A   Overcast
4:55 PM 29.3 °F 16.2 °F 16.0 °F 58% 29.90 in 10.0 mi West 20.7 mph 29.9 mph N/A   Overcast
5:14 PM 30.0 °F 16.9 °F 16.9 °F 58% 29.91 in 10.0 mi West 21.9 mph 29.9 mph N/A   Overcast
5:35 PM 31.8 °F 19.0 °F 17.8 °F 56% 29.92 in 10.0 mi West 23.0 mph 31.1 mph N/A   Overcast
5:55 PM 31.3 °F 19.2 °F 16.9 °F 55% 29.92 in 10.0 mi West 19.6 mph - N/A   Mostly Cloudy
6:14 PM 31.6 °F 18.7 °F 16.7 °F 54% 29.92 in 10.0 mi West 23.0 mph 29.9 mph N/A   Scattered Clouds
6:35 PM 31.6 °F 19.0 °F 15.1 °F 50% 29.92 in 10.0 mi West 21.9 mph 32.2 mph N/A   Scattered Clouds
6:55 PM 31.6 °F 19.3 °F 14.9 °F 50% 29.93 in 10.0 mi West 20.7 mph 28.8 mph N/A   Clear
7:14 PM 31.1 °F 19.7 °F 15.1 °F 52% 29.94 in 10.0 mi West 17.3 mph 31.1 mph N/A   Clear
7:35 PM 30.4 °F 19.1 °F 14.5 °F 52% 29.95 in 10.0 mi West 16.1 mph 25.3 mph N/A   Clear
7:55 PM 29.8 °F 19.3 °F 14.9 °F 54% 29.95 in 10.0 mi West 13.8 mph 25.3 mph N/A   Clear
8:14 PM 29.7 °F 17.8 °F 14.9 °F 54% 29.95 in 10.0 mi West 17.3 mph 25.3 mph N/A   Clear
8:35 PM 29.7 °F 17.8 °F 14.7 °F 54% 29.96 in 10.0 mi West 17.3 mph 23.0 mph N/A   Clear
8:54 PM 29.3 °F 19.6 °F 15.3 °F 56% 29.96 in 10.0 mi West 11.5 mph 21.9 mph N/A   Clear
9:35 PM 29.5 °F 21.1 °F 15.6 °F 56% 29.97 in 10.0 mi West 9.2 mph - N/A   Clear
9:54 PM 29.3 °F 20.2 °F 15.8 °F 57% 29.97 in 10.0 mi West 10.4 mph - N/A   Clear
10:15 PM 29.5 °F 19.9 °F 16.3 °F 58% 29.97 in 10.0 mi West 11.5 mph - N/A   Scattered Clouds
10:35 PM 29.3 °F 18.6 °F 16.7 °F 59% 29.98 in 10.0 mi West 13.8 mph 18.4 mph N/A   Mostly Cloudy
10:54 PM 29.8 °F 17.3 °F 16.5 °F 58% 29.98 in 10.0 mi West 19.6 mph 26.5 mph N/A   Mostly Cloudy
11:15 PM 29.3 °F 17.3 °F 16.5 °F 59% 29.98 in 10.0 mi West 17.3 mph 21.9 mph N/A   Scattered Clouds
11:34 PM 28.9 °F 16.9 °F 16.3 °F 59% 29.98 in 10.0 mi West 17.3 mph 23.0 mph N/A   Scattered Clouds
11:55 PM 28.4 °F 15.8 °F 16.3 °F 61% 29.98 in 10.0 mi West 18.4 mph 21.9 mph N/A   Clear